Other Public Products
Issued by NWS Grand Forks, ND

Home | Current Version | Previous Version | Text Only | Print | Product List | Glossary Off
Versions: 1 2 3 4 5 6 7 8 9 10 11 12 13 14 15 16 17 18 19 20 21 22 23 24 25 26 27 28 29 30 31 32 33 34 35 36 37 38 39 40 41 42 43 44 45 46 47 48 49 50

000
FPUS83 KFGF 010610
OPUFGF
PRAIRIE TO PINES WEATHER ROUNDUP
NATIONAL WEATHER SERVICE EASTERN NORTH DAKOTA/GRAND FORKS ND
1200 AM CST WED MAR 01 2017

 **SATELLITE DATA USED TO AUGMENT SKY COVER AT AUTOMATED STATIONS**
 *****  WEATHER ACROSS EASTERN NORTH DAKOTA  *****

CITY           SKY/WX    TMP DP  RH WIND       PRES   REMARKS
GRAND FORKS    FAIR      13   3  64 N12       29.93F WCI  -1
6HR MIN TEMP:  13; 6HR MAX TEMP:  19;

GRAND FORKS AF FAIR      12   5  74 N9        29.94S WCI  -1
GRAND CITY NWS NOT AVBL
BUXTON         NOT AVBL
DEVILS LAKE    MOCLDY     5   0  79 CALM      29.92F
6HR MIN TEMP:   2; 6HR MAX TEMP:  12;

FARGO          FAIR      18  15  88 N9        29.89S WCI   7
6HR MIN TEMP:  18; 6HR MAX TEMP:  28;

WAHPETON ARPT    N/A     25  19  80 N17       29.86R WCI  11
$$

 *****  WEATHER ACROSS CENTRAL AND WESTERN NORTH DAKOTA  *****

CITY           SKY/WX    TMP DP  RH WIND       PRES   REMARKS
JAMESTOWN      MOCLDY    17  13  84 NW10      29.89S WCI   5
6HR MIN TEMP:  17; 6HR MAX TEMP:  23;

BISMARCK       FAIR      15  12  88 E3        29.91F
6HR MIN TEMP:  15; 6HR MAX TEMP:  24;

MINOT          LGT SNOW  15  10  80 CALM      29.90S VSB 1
6HR MIN TEMP:  13; 6HR MAX TEMP:  15; 6HR PCP:  0.02;

MINOT AFB      LGT SNOW  13   9  86 CALM      29.90S FOG
6HR MIN TEMP:  11; 6HR MAX TEMP:  13; 6HR PCP:  0.02;

GARRISON         N/A     14  10  84 E6        29.88R WCI   5
6HR MIN TEMP:  14; 6HR MAX TEMP:  17; 6HR PCP:  0.01;

WILLISTON      LGT SNOW  22  20  92 N9        29.89R FOG     WCI  12
6HR MIN TEMP:  22; 6HR MAX TEMP:  27; 6HR PCP:  0.04;

DICKINSON      FAIR      20  17  88 SW3       29.79R
6HR MIN TEMP:  18; 6HR MAX TEMP:  25; 6HR PCP: TRACE;

HETTINGER      FAIR      19  16  88 CALM      29.84R
6HR MIN TEMP:  19; 6HR MAX TEMP:  26; 6HR PCP: TRACE;

$$

 *****  OTHER OBSERVATIONS NORTHEAST NORTH DAKOTA  *****

CITY           SKY/WX    TMP DP  RH WIND       PRES   REMARKS
WALHALLA       NOT AVBL
LANGDON        NOT AVBL
CAVALIER         N/A      9   1  72 N7        29.97F WCI  -3
GRAFTON        FAIR       9   3  78 N13       29.97F WCI  -7
CANDO          NOT AVBL
FORT TOTTEN      N/A      4  -1  81 CALM      29.95S
ROLLA          CLOUDY     9   1  72 CALM      29.91S
RUGBY            N/A      9   5  85 CALM      29.93S
 ***** THE ABOVE OBSERVATIONS ARE NON NWS ARE NOT QUALITY
        CONTROLLED AND MAY MIS-REPORT RAIN FOR SNOW...
$$

 *****  OTHER OBSERVATIONS SOUTHEAST NORTH DAKOTA *****

CITY           SKY/WX    TMP DP  RH WIND       PRES   REMARKS
COOPERSTOWN    FAIR      14   9  79 N9        29.90S WCI   2
VALLEY CITY    CLOUDY    16  16 100 N8        29.91S WCI   5
OAKES          NOT AVBL
GWINNER        FAIR      21  19  93 N14       29.88S WCI   8
SHEYENNE NWR     N/A     19  13  77 N9        29.95S WCI   8
BUFFALO        NOT AVBL
WYNDMERE       NOT AVBL
 ***** THE ABOVE OBSERVATIONS ARE NON NWS ARE NOT QUALITY
       CONTROLLED AND MAY MIS-REPORT RAIN FOR SNOW...
$$

  *****  WEATHER ACROSS NORTHERN MINNESOTA  *****

CITY           SKY/WX    TMP DP  RH WIND       PRES   REMARKS
FLAG ISLAND    FAIR      10   1  67 N3        29.94R
WARROAD        FAIR      10   1  67 NE6       29.93F WCI   1
ROSEAU         FAIR       9   1  72 E5        29.93S WCI   0
HALLOCK        FAIR       7   1  78 N8        29.95F WCI  -6
THF RVR FALLS  FAIR      18   6  59 NE10      29.90F WCI   6
6HR MIN TEMP:  18; 6HR MAX TEMP:  24;

HALSTAD          N/A     16  10  77 N12         N/A  WCI   3
FOSSTON        FAIR      18  12  79 NE8       29.86F WCI   7
BAUDETTE       FAIR      13   0  56 NE3       29.90F
6HR MIN TEMP:  13; 6HR MAX TEMP:  25;

WASKISH        FAIR      16   7  67 N6        29.88F WCI   7
CROOKSTON      FAIR      16  12  86 N12       29.92F WCI   3
$$
  *****  WEATHER ACROSS CENTRAL AND WEST MINNESOTA  *****

CITY           SKY/WX    TMP DP  RH WIND       PRES   REMARKS
BEMIDJI        FAIR      19  12  73 N6        29.84S WCI  11
PARK RAPIDS    FAIR      25  14  63 N8        29.80S WCI  16
6HR MIN TEMP:  25; 6HR MAX TEMP:  33;

WADENA         FAIR      25  19  80 N8        29.80R WCI  16
DETROIT LAKES  FAIR      27  19  74 N5        29.84R WCI  21
MOORHEAD       FAIR      19  16  86 N12       29.89R WCI   7
FERGUS FALLS   FAIR      27  21  80 N6        29.87S WCI  20
ELBOW LAKE     MOCLDY    28  23  84 N8        29.82R WCI  19
MORRIS MN      CLOUDY    30  27  86 NW7       29.80R WCI  23
STAPLES        CLOUDY    27  21  80 N5        29.79S WCI  21
WHEATON        FAIR      25  21  86 NW12      29.86S WCI  14
$$
  *****  WEATHER ELSEWHERE ACROSS MINNESOTA  *****

CITY           SKY/WX    TMP DP  RH WIND       PRES   REMARKS
DULUTH         CLOUDY    25  19  78 E10       29.79F WCI  15
6HR MIN TEMP:  25; 6HR MAX TEMP:  29; 6HR PCP: TRACE;

INTRNTL FALLS  FAIR      15   2  56 NE5       29.90S WCI   8
6HR MIN TEMP:  15; 6HR MAX TEMP:  26;

ELY            FAIR      16   3  57 NE6       29.84S WCI   7
CLOQUET        CLOUDY    27  21  80 E9        29.79S WCI  17
BRAINERD       CLOUDY    29  22  75 NE10      29.80R WCI  20
6HR MIN TEMP:  29; 6HR MAX TEMP:  33;

HIBBING        FAIR      21  14  74 NE6       29.82R WCI  13
6HR MIN TEMP:  21; 6HR MAX TEMP:  28;

ALEXANDRIA     CLOUDY    30  24  78 N7        29.79R WCI  23
6HR MIN TEMP:  30; 6HR MAX TEMP:  32;

SAINT CLOUD    CLOUDY    30  27  88 N9        29.76S WCI  22
6HR MIN TEMP:  30; 6HR MAX TEMP:  32; 6HR PCP: TRACE;

MINNEAPOLIS    CLOUDY    32  25  75 N10       29.71S WCI  24
6HR MIN TEMP:  32; 6HR MAX TEMP:  37; 6HR PCP: TRACE;

$$

  *****  WEATHER ACROSS SOUTH DAKOTA  *****

CITY           SKY/WX    TMP DP  RH WIND       PRES   REMARKS
SIOUX FALLS    FLURRIES  32  30  92 N9        29.78S WCI  24
6HR MIN TEMP:  32; 6HR MAX TEMP:  35; 6HR PCP: TRACE;

BROOKINGS      FLURRIES  29  26  89 N9        29.77S WCI  20
WATERTOWN      CLOUDY    25  22  88 N13       29.80R WCI  14
6HR MIN TEMP:  25; 6HR MAX TEMP:  29; 6HR PCP: TRACE;

HURON          LGT SNOW  26  25  96 N12       29.86R FOG     WCI  16
6HR MIN TEMP:  26; 6HR MAX TEMP:  29; 6HR PCP:  0.06;

SISSETON         N/A     22  20  92 N16       29.84S WCI   8
ABERDEEN       CLOUDY    24  18  77 N14       29.88S WCI  12
6HR MIN TEMP:  24; 6HR MAX TEMP:  29;

MITCHELL       LGT SNOW  29  28  96 NW14      29.85R FOG     WCI  18
PIERRE         CLOUDY    23  21  92 NW8       29.89R WCI  14
6HR MIN TEMP:  23; 6HR MAX TEMP:  27; 6HR PCP: TRACE;

MOBRIDGE       FAIR      19  15  84 NW3       29.86R
RAPID CITY     FAIR      17  15  92 CALM      29.84R
6HR MIN TEMP:  17; 6HR MAX TEMP:  28;

$$

  *****  SOME WEATHER IN NEARBY STATES *****

CITY           SKY/WX    TMP DP  RH WIND       PRES   REMARKS
GLASGOW MT     CLOUDY    19  14  81 NW7       29.96R WCI  10
6HR MIN TEMP:  19; 6HR MAX TEMP:  26; 6HR PCP: TRACE;

GREAT FALLS MT FAIR      14  10  84 SW14      29.93S WCI  -1
6HR MIN TEMP:   8; 6HR MAX TEMP:  23;

CHEYENNE WY    FAIR      19   4  51 W16       29.91R WCI   4
6HR MIN TEMP:  18; 6HR MAX TEMP:  26;

SCOTTSBLUFF NE FAIR      25  12  58 W16       29.92R WCI  12
6HR MIN TEMP:  24; 6HR MAX TEMP:  31;

OMAHA NE       MOCLDY    35  31  85 NW9       29.75F
6HR MIN TEMP:  35; 6HR MAX TEMP:  41; 6HR PCP:  0.03;

DES MOINES IA  LGT RAIN  39  36  89 NW16      29.65S
6HR MIN TEMP:  39; 6HR MAX TEMP:  53; 6HR PCP: TRACE;

DAVENPORT IA   FAIR      49  47  93 W7        29.51R
6HR MIN TEMP:  48; 6HR MAX TEMP:  55;

CHICAGO IL     LGT RAIN  54  52  93 S7        29.47F
6HR MIN TEMP:  53; 6HR MAX TEMP:  60; 6HR PCP:  0.55;

EAU CLAIRE WI  CLOUDY    34  29  82 N12G24    29.66R
6HR MIN TEMP:  34; 6HR MAX TEMP:  39;

LA CROSSE WI   CLOUDY    39  38  96 NW10      29.59R FOG
6HR MIN TEMP:  39; 6HR MAX TEMP:  44; 6HR PCP:  0.02;

$$

  *****  SOME NATIONAL WEATHER *****

CITY           SKY/WX    TMP DP  RH WIND       PRES   REMARKS
LA GUARDIA NY  CLOUDY    53  48  83 S5        29.97F
6HR MIN TEMP:  51; 6HR MAX TEMP:  57;



USA.gov is the U.S. government's official web portal to all federal, state and local government web resources and services.